[[{"header":{"parameterUnit":"m.s-1","parameterCategory":1,"la1":30.2992,"la2":30.254,"lo1":-89.0895,"lo2":-89.0443,"dy":0.0025,"dx":0.0025,"nx":19,"ny":19,"refTime":"2026-04-09T21:00:00:Z","depth":0,"parameterNumber":2,"parameterNumberName":"U-component_of_WINDS"},"data":[0,0,0,-5.1636,-5.1637,-5.1655,-5.1655,-5.1709,-5.171,0,0,0,0,0,0,0,0,0,0,0,-5.1649,-5.165,-5.1636,-5.1637,-5.1655,-5.1655,-5.1709,-5.171,0,0,0,0,0,0,0,0,0,0,0,-5.1649,-5.165,-5.1651,-5.1637,-5.1655,-5.1655,-5.1709,-5.1684,0,0,0,0,0,0,0,0,0,0,-5.1661,-5.1691,-5.1649,-5.1651,-5.1637,-5.1655,-5.1655,-5.1683,-5.1686,-5.1714,0,-5.1744,0,-5.1728,-5.1716,-5.1716,0,0,0,-5.1623,-5.1689,-5.1677,-5.1651,-5.1638,-5.1655,-5.1643,-5.1684,-5.1688,-5.1719,-5.1745,-5.1746,-5.1729,-5.1716,-5.1717,-5.1927,-5.1929,0,0,-5.1622,-5.1662,-5.1675,-5.168,-5.1679,-5.1642,-5.1644,-5.1686,-5.1717,-5.1745,-5.1747,-5.173,-5.1717,-5.1717,-5.1926,-5.1928,0,0,0,-5.1628,-5.1662,-5.1648,-5.1679,-5.168,-5.1643,-5.1645,-5.1715,-5.1707,-5.1747,-5.1731,-5.1717,-5.1718,-5.1924,-5.1926,-5.2045,0,0,0,-5.1627,-5.1666,-5.1649,-5.1674,-5.168,-5.1697,-5.1673,-5.1704,-5.1707,-5.1731,-5.1717,-5.1719,-5.1922,-5.1925,-5.2037,-5.2093,0,0,0,-5.1642,-5.1667,-5.1676,-5.1676,-5.1685,-5.1696,-5.169,-5.1704,-5.1698,-5.1716,-5.1719,-5.1921,-5.1925,-5.2031,-5.2083,-5.216,0,0,0,-5.1668,-5.1781,-5.1679,-5.1799,-5.1685,-5.177,-5.1689,-5.175,-5.1779,-5.1718,-5.1922,-5.1926,-5.2029,-5.2076,-5.2153,-5.2231,-5.2267,0,0,-5.1832,-5.1802,-5.187,-5.1779,-5.1891,-5.1763,-5.1894,-5.1883,-5.1848,-5.1903,-5.1908,-5.204,-5.2082,-5.2158,-5.2461,-5.249,0,0,0,-5.1935,-5.1984,-5.2005,-5.2035,-5.203,-5.203,-5.1996,-5.1992,-5.2037,-5.1884,-5.2088,-5.2112,-5.2155,-5.219,-5.2215,-5.2249,-5.1945,-5.1944,-5.1944,-5.2223,-5.2174,-5.2282,-5.2235,-5.2266,-5.223,-5.225,-5.2239,-5.218,-5.2229,-5.2244,-5.2434,-5.2476,-5.2495,-5.2531,-5.2283,-5.2283,-5.2284,-5.2284,-5.2458,-5.2519,-5.2439,-5.2515,-5.2463,-5.2527,-5.2498,-5.2455,-5.2506,-5.2418,-5.2453,-5.2359,-5.2528,-5.2557,-5.2292,-5.2291,-5.229,-5.2289,-5.2288,-5.2639,-5.2659,-5.2654,-5.2693,-5.273,-5.268,-5.2734,-5.2684,-5.2638,-5.2674,-5.2684,-5.2682,-5.2673,-5.2683,-5.2684,-5.2684,-5.2685,-5.2685,-5.2686,-5.2828,-5.2818,-5.2869,-5.2876,-5.2889,-5.2901,-5.2869,-5.2881,-5.2882,-5.2842,-5.2842,-5.2778,-5.2555,-5.2499,-5.2696,-5.2694,-5.2693,-5.2692,-5.2691,-5.308,-5.3016,-5.3095,-5.3109,-5.3113,-5.3153,-5.3091,-5.3121,-5.3124,-5.3153,-5.3082,-5.2926,-5.2891,-5.2871,-5.2824,-5.3093,-5.3093,-5.3093,-5.3093,-5.3232,-5.321,-5.328,-5.3306,-5.3326,-5.3279,-5.3371,-5.3349,-5.3315,-5.3314,-5.3269,-5.3203,-5.3185,-5.316,-5.3134,-5.3089,-5.342,-5.342,-5.3421,-5.3384,-5.3362,-5.3449,-5.3416,-5.3416,-5.3418,-5.3503,-5.3537,-5.3485,-5.3433,-5.3312,-5.3298,-5.3192,-5.316,-5.3102,-5.3062,-5.2979,0,0]},{"header":{"parameterUnit":"m.s-1","parameterCategory":1,"la1":30.2992,"la2":30.254,"lo1":-89.0895,"lo2":-89.0443,"dy":0.0025,"dx":0.0025,"nx":19,"ny":19,"refTime":"2026-04-09T21:00:00:Z","depth":0,"parameterNumber":3,"parameterNumberName":"V-component_of_WINDS"},"data":[0,0,0,2.7928,2.7927,2.7901,2.7901,2.7849,2.7848,0,0,0,0,0,0,0,0,0,0,0,2.7925,2.7925,2.7928,2.7927,2.7901,2.7901,2.7849,2.7848,0,0,0,0,0,0,0,0,0,0,0,2.7926,2.7925,2.7924,2.7927,2.7901,2.7901,2.7849,2.7875,0,0,0,0,0,0,0,0,0,0,2.7903,2.7891,2.7925,2.7924,2.7927,2.7901,2.7901,2.7876,2.7873,2.7853,0,2.7834,0,2.784,2.7844,2.7843,0,0,0,2.7933,2.7894,2.7897,2.7924,2.7926,2.7902,2.7915,2.7875,2.7871,2.7848,2.7833,2.7832,2.784,2.7843,2.7843,2.7711,2.771,0,0,2.7934,2.7915,2.7899,2.7894,2.79,2.7915,2.7914,2.7873,2.7854,2.7833,2.7831,2.7839,2.7843,2.7842,2.7711,2.771,0,0,0,2.7934,2.7915,2.7919,2.7896,2.7893,2.7915,2.7913,2.7856,2.7859,2.7831,2.7838,2.7842,2.7841,2.7713,2.7711,2.7647,0,0,0,2.7935,2.7915,2.792,2.7907,2.7893,2.7874,2.7896,2.7862,2.7858,2.7838,2.7842,2.7841,2.7714,2.7712,2.7651,2.7618,0,0,0,2.793,2.7915,2.7908,2.7906,2.7895,2.7876,2.7877,2.7862,2.7862,2.7843,2.7841,2.7714,2.7712,2.7654,2.7624,2.7578,0,0,0,2.7918,2.7849,2.7907,2.7833,2.7895,2.7838,2.7877,2.7835,2.7811,2.7842,2.7713,2.7711,2.7656,2.7628,2.7581,2.7534,2.7513,0,0,2.782,2.7837,2.7795,2.7846,2.7774,2.7843,2.7761,2.7756,2.7771,2.7729,2.7726,2.765,2.7625,2.7579,2.7405,2.7388,0,0,0,2.7757,2.7727,2.7712,2.7691,2.7689,2.7683,2.7695,2.7694,2.766,2.7747,2.7622,2.7608,2.7581,2.7559,2.7545,2.7523,2.7701,2.7701,2.7701,2.7586,2.7613,2.7546,2.757,2.7549,2.7564,2.7548,2.7548,2.7578,2.7549,2.7535,2.7427,2.7401,2.739,2.7367,2.7514,2.7514,2.7514,2.7514,2.7444,2.7404,2.7451,2.7403,2.7431,2.7389,2.7401,2.7425,2.7389,2.7439,2.7417,2.7467,2.7371,2.7352,2.7509,2.751,2.751,2.7511,2.7511,2.7333,2.7319,2.7322,2.7296,2.7272,2.7299,2.7264,2.729,2.7314,2.7293,2.7281,2.7283,2.7285,2.7286,2.7286,2.7286,2.7285,2.7285,2.7285,2.7216,2.7222,2.719,2.7185,2.7176,2.7167,2.7184,2.7175,2.7171,2.7193,2.7193,2.7225,2.7358,2.739,2.7279,2.728,2.7281,2.7281,2.7282,2.7057,2.7098,2.7049,2.7041,2.7038,2.7012,2.7049,2.7029,2.7026,2.7007,2.7047,2.7141,2.7159,2.717,2.7196,2.7042,2.7042,2.7042,2.7042,2.6962,2.6976,2.6933,2.6917,2.6905,2.6935,2.6877,2.689,2.6909,2.6908,2.6935,2.6973,2.6984,2.6995,2.701,2.7035,2.6843,2.6843,2.6843,2.6865,2.688,2.6826,2.6849,2.6849,2.6848,2.6795,2.6774,2.6804,2.6835,2.6908,2.6916,2.6978,2.6997,2.7025,2.7049,2.7095,0,0]}]]